W4RWF Weather Reports


time (UTC)temp
C
wind
direction
speed
KPH
gust
KPH
rain 1hr
cm
rain 24hr
cm
rain mn
cm
humidity
%
barometer
mb
20260503185010 21 152 1.6 12.9 0.00 0.03 0.03 40 1019.2
20260503184512 21 293 1.6 12.9 0.00 0.03 0.03 38 1019.2
20260503184006 22 321 0.0 6.4 0.00 0.03 0.03 38 1019.3
20260503183508 21 273 1.6 6.4 0.00 0.03 0.03 39 1019.4
20260503183017 21 276 1.6 16.1 0.00 0.03 0.03 37 1019.3
20260503182508 21 117 3.2 16.1 0.00 0.03 0.03 39 1019.4
20260503182006 21 290 3.2 8.0 0.00 0.03 0.03 37 1019.5
20260503181524 21 271 3.2 8.0 0.00 0.03 0.03 38 1019.6
20260503181008 20 252 3.2 6.4 0.00 0.03 0.03 39 1019.7
20260503180509 20 167 3.2 11.3 0.00 0.03 0.03 38 1019.6
20260503180036 21 347 1.6 11.3 0.00 0.03 0.03 41 1019.7
20260503175509 21 292 3.2 6.4 0.00 0.03 0.03 38 1019.6
20260503175010 21 284 1.6 9.7 0.00 0.03 0.03 41 1019.7
20260503174526 21 323 3.2 9.7 0.00 0.03 0.03 40 1019.7
20260503174010 21 276 3.2 8.0 0.00 0.03 0.03 40 1019.7
20260503173459 21 290 1.6 8.0 0.00 0.03 0.03 40 1019.7
20260503173003 20 270 1.6 8.0 0.00 0.03 0.03 43 1019.7
20260503172502 20 95 3.2 9.7 0.00 0.03 0.03 41 1019.7
20260503172003 20 284 3.2 9.7 0.00 0.03 0.03 42 1019.8
20260503171504 20 267 3.2 8.0 0.00 0.05 0.03 40 1019.7
20260503171004 21 227 1.6 4.8 0.00 0.05 0.03 41 1019.8
20260503170502 20 286 1.6 4.8 0.00 0.05 0.03 46 1019.9
20260503151010 17 4 3.2 4.8 0.00 0.23 0.03 52 1020.9
20260503150507 17 52 1.6 8.0 0.00 0.23 0.03 52 1021.0
20260503131003 13 305 0.0 1.6 0.00 0.69 0.03 74 1020.3
20260503130509 12 302 0.0 3.2 0.00 0.71 0.03 73 1020.3
20260503110504 7 340 0.0 0.0 0.00 1.04 0.00 97 1019.1
20260503090510 7 340 0.0 0.0 0.00 1.47 0.00 96 1017.5
20260503081519 7 340 0.0 0.0 0.00 1.65 0.00 97 1017.2
20260503081006 7 340 0.0 0.0 0.00 1.65 0.00 97 1017.2
20260503080507 7 340 0.0 0.0 0.00 1.68 0.00 97 1017.2
20260503072510 8 340 0.0 0.0 0.00 1.75 0.00 97 1017.0
20260503072011 7 340 0.0 0.0 0.00 1.78 0.00 97 1016.8
20260503071529 7 340 0.0 0.0 0.00 1.78 0.00 96 1016.8
20260503071009 7 356 0.0 0.0 0.00 1.78 0.00 96 1016.8
20260503070504 7 356 0.0 0.0 0.00 1.80 0.00 96 1016.8
20260503055011 8 356 0.0 0.0 0.00 1.80 0.00 95 1016.3
20260503054514 8 357 0.0 0.0 0.00 1.80 0.00 95 1016.4
20260503054007 9 356 0.0 0.0 0.00 1.80 0.00 95 1016.5
20260503053507 9 356 0.0 0.0 0.00 1.80 0.00 95 1016.5
20260503053008 9 356 0.0 0.0 0.00 1.80 0.00 95 1016.4
20260503052504 9 357 0.0 0.0 0.00 1.80 0.00 96 1016.4
20260503052006 9 356 0.0 0.0 0.00 1.80 0.00 96 1016.4
20260503051504 9 357 0.0 0.0 0.00 1.80 0.00 96 1016.4
20260503051006 10 357 0.0 0.0 0.00 1.80 0.00 96 1016.3
20260503050503 10 356 0.0 0.0 0.00 1.80 0.00 95 1016.3
20260503050007 10 357 0.0 0.0 0.00 1.80 0.00 95 1016.3
20260503045504 10 356 0.0 0.0 0.00 1.80 0.00 95 1016.2
20260503045004 10 357 0.0 0.0 0.00 1.80 0.00 96 1016.2
20260503044511 10 356 0.0 0.0 0.00 1.80 0.00 96 1016.2
20260503044008 10 356 0.0 0.0 0.00 1.80 0.00 95 1016.1
20260503043507 10 356 0.0 0.0 0.00 1.80 0.00 95 1016.2
20260503043016 10 356 0.0 0.0 0.00 1.80 0.00 96 1016.1
20260503042508 10 356 0.0 0.0 0.00 1.80 0.00 96 1016.3
20260503042010 10 357 0.0 0.0 0.00 1.80 0.00 96 1016.4
20260503041520 10 357 0.0 0.0 0.00 1.80 0.00 96 1016.3
20260503041003 10 356 0.0 0.0 0.00 1.80 0.00 96 1016.3
20260503040503 10 356 0.0 0.0 0.00 1.80 0.00 95 1016.3
20260503040006 10 356 0.0 0.0 0.00 1.80 0.00 95 1016.2
20260503035504 10 356 0.0 0.0 0.00 1.80 1.80 95 1016.1
20260503035002 10 356 0.0 0.0 0.00 1.80 1.80 95 1016.2
20260503034509 10 358 0.0 0.0 0.00 1.80 1.80 95 1016.2
20260503034004 10 358 0.0 0.0 0.00 1.80 1.80 96 1016.3
20260503033504 10 358 0.0 0.0 0.00 1.80 1.80 96 1016.2
20260503033023 10 358 0.0 0.0 0.00 1.80 1.80 96 1016.2
20260503032507 10 358 0.0 0.0 0.00 1.80 1.80 96 1016.1
20260503032007 10 358 0.0 0.0 0.00 1.80 1.80 96 1016.1
20260503031516 10 358 0.0 0.0 0.00 1.80 1.80 96 1015.9
20260503031008 10 358 0.0 0.0 0.00 1.80 1.80 96 1015.8
20260503030508 10 358 0.0 0.0 0.00 1.80 1.80 96 1015.9
20260503030022 10 358 0.0 0.0 0.00 1.80 1.80 96 1015.7
20260503025507 10 359 0.0 0.0 0.00 1.80 1.80 96 1015.5
20260503025004 10 358 0.0 0.0 0.00 1.80 1.80 95 1015.4
20260503024506 10 358 0.0 0.0 0.00 1.80 1.80 96 1015.4
20260503024005 10 358 0.0 0.0 0.00 1.80 1.80 96 1015.2
20260503023503 10 359 0.0 0.0 0.00 1.80 1.80 96 1015.2
20260503023009 10 359 0.0 0.0 0.00 1.80 1.80 96 1015.0
20260503022504 10 359 0.0 0.0 0.00 1.80 1.80 96 1015.1
20260503022004 10 359 0.0 0.0 0.00 1.80 1.80 96 1015.0
20260503021514 10 358 0.0 0.0 0.00 1.80 1.80 96 1014.8
20260503021007 10 359 0.0 0.0 0.00 1.80 1.80 96 1014.7
20260503020508 10 359 0.0 0.0 0.00 1.80 1.80 96 1014.6
20260503020020 10 359 0.0 0.0 0.00 1.80 1.80 96 1014.5
20260503015509 10 359 0.0 0.0 0.00 1.80 1.80 95 1014.6
20260503015006 10 359 0.0 0.0 0.00 1.80 1.80 95 1014.5
20260503014537 10 359 0.0 0.0 0.00 1.80 1.80 95 1014.4
20260503014007 9 359 0.0 0.0 0.00 1.80 1.80 95 1014.2
20260503013507 9 359 0.0 0.0 0.00 1.80 1.80 95 1014.2
20260503013007 9 359 0.0 0.0 0.00 1.80 1.80 95 1014.2
20260503012505 9 359 0.0 0.0 0.00 1.80 1.80 95 1014.2
20260503012004 9 358 0.0 0.0 0.00 1.80 1.80 94 1014.1
20260503011512 9 359 0.0 0.0 0.00 1.80 1.80 94 1014.0
20260503011007 9 359 0.0 0.0 0.00 1.80 1.80 93 1014.0
20260503010508 9 359 0.0 0.0 0.00 1.80 1.80 93 1014.0
20260503010018 9 359 0.0 0.0 0.00 1.80 1.80 93 1014.0
20260503005507 10 359 0.0 0.0 0.00 1.80 1.80 93 1014.0
20260503005007 10 359 0.0 0.0 0.00 1.80 1.80 93 1014.1
20260503004558 10 358 0.0 0.0 0.00 1.80 1.80 92 1013.9
20260503004011 10 359 0.0 0.0 0.00 1.80 1.80 92 1013.9
20260503003506 10 359 0.0 0.0 0.00 1.80 1.80 91 1013.8
20260503003024 10 359 0.0 0.0 0.00 1.80 1.80 91 1013.6
20260503002507 11 359 0.0 0.0 0.00 1.80 1.80 91 1013.6
20260503002011 11 359 0.0 0.0 0.00 1.80 1.80 90 1013.5
20260503001528 11 359 0.0 0.0 0.00 1.80 1.80 90 1013.4
20260503001006 11 359 0.0 0.0 0.00 1.80 1.80 89 1013.3
20260503000508 11 359 0.0 0.0 0.00 1.80 1.80 88 1013.2
20260503000013 12 359 0.0 0.0 0.00 1.80 1.80 86 1013.0
20260502235510 12 359 0.0 0.0 0.00 1.80 1.80 85 1013.0
20260502235008 12 359 0.0 0.0 0.00 1.80 1.80 84 1013.0
20260502234519 13 359 0.0 0.0 0.00 1.80 1.80 82 1013.0
20260502234006 13 359 0.0 0.0 0.00 1.80 1.80 82 1012.8
20260502233507 13 359 0.0 0.0 0.00 1.80 1.80 82 1012.8
20260502233023 13 359 0.0 0.0 0.00 1.80 1.80 82 1012.8
20260502232507 13 359 0.0 0.0 0.00 1.80 1.80 82 1012.8
20260502232007 13 359 0.0 1.6 0.00 1.80 1.80 82 1012.8
20260502231527 13 359 0.0 1.6 0.00 1.80 1.80 82 1012.7
20260502231009 13 359 0.0 0.0 0.00 1.80 1.80 83 1012.6
20260502230509 13 358 0.0 0.0 0.00 1.80 1.80 83 1012.7
20260502230026 13 1 0.0 0.0 0.00 1.80 1.80 83 1012.7
20260502225508 13 1 0.0 0.0 0.00 1.80 1.80 83 1012.7
20260502225008 13 1 0.0 0.0 0.00 1.80 1.80 81 1012.7
20260502224516 13 1 0.0 0.0 0.00 1.80 1.80 82 1012.6
20260502224006 13 2 0.0 1.6 0.00 1.80 1.80 81 1012.6
20260502223506 13 2 0.0 1.6 0.00 1.80 1.80 81 1012.7
20260502223022 13 2 0.0 1.6 0.00 1.80 1.80 80 1012.7
20260502222507 13 317 0.0 1.6 0.00 1.80 1.80 81 1012.7
20260502222007 13 318 0.0 1.6 0.00 1.80 1.80 81 1012.7
20260502221523 13 317 0.0 1.6 0.00 1.80 1.80 80 1012.7
20260502221009 13 317 0.0 3.2 0.00 1.80 1.80 80 1012.6
20260502220511 13 14 0.0 3.2 0.00 1.80 1.80 80 1012.6
20260502220029 13 32 0.0 3.2 0.00 1.80 1.80 79 1012.5
20260502215509 13 353 0.0 1.6 0.00 1.80 1.80 79 1012.4
20260502215008 13 354 0.0 3.2 0.00 1.80 1.80 79 1012.4
20260502214526 13 352 0.0 4.8 0.00 1.80 1.80 78 1012.3
20260502214011 13 252 0.0 6.4 0.00 1.80 1.80 78 1012.3
20260502213508 13 360 0.0 6.4 0.00 1.80 1.80 77 1012.3
20260502213016 13 257 0.0 4.8 0.00 1.80 1.80 79 1012.2
20260502212507 13 337 1.6 11.3 0.00 1.80 1.80 78 1012.2
20260502212006 13 308 1.6 11.3 0.00 1.80 1.80 81 1012.3
20260502211535 13 6 1.6 4.8 0.00 1.80 1.80 80 1012.3
20260502211008 13 268 0.0 9.7 0.00 1.80 1.80 81 1012.3
20260502210509 13 297 0.0 9.7 0.00 1.80 1.80 83 1012.2
20260502210033 13 15 0.0 3.2 0.00 1.80 1.80 83 1012.3
20260502205510 13 332 1.6 3.2 0.00 1.80 1.80 85 1012.3
20260502205008 13 302 0.0 4.8 0.00 1.80 1.80 85 1012.3
20260502204525 12 294 0.0 4.8 0.00 1.80 1.80 85 1012.3
20260502204010 12 341 1.6 4.8 0.00 1.80 1.80 86 1012.2
20260502203510 12 298 0.0 3.2 0.00 1.80 1.80 87 1012.2
20260502203029 12 266 0.0 3.2 0.00 1.80 1.80 88 1012.2
20260502202510 12 297 0.0 3.2 0.00 1.80 1.80 87 1012.2
20260502202011 12 359 0.0 6.4 0.00 1.80 1.80 87 1012.4
20260502201517 12 342 0.0 6.4 0.00 1.80 1.80 89 1012.4
20260502201007 12 250 0.0 3.2 0.00 1.80 1.80 89 1012.4
20260502200506 12 289 0.0 3.2 0.00 1.80 1.80 89 1012.4
20260502200026 12 308 0.0 3.2 0.00 1.80 1.80 88 1012.4
20260502195510 12 337 0.0 3.2 0.00 1.80 1.80 89 1012.5
20260502195010 12 328 0.0 4.8 0.00 1.80 1.80 88 1012.5
20260502194523 12 350 0.0 4.8 0.00 1.80 1.80 87 1012.5
20260502194010 12 278 1.6 6.4 0.00 1.80 1.80 88 1012.7
20260502193517 12 360 1.6 6.4 0.00 1.80 1.80 87 1012.7
20260502193026 12 39 1.6 8.0 0.00 1.80 1.80 88 1012.7
20260502192512 12 306 1.6 8.0 0.00 1.80 1.80 87 1012.8
20260502192009 12 319 0.0 1.6 0.00 1.80 1.80 89 1012.8
20260502191528 12 302 0.0 6.4 0.00 1.80 1.80 89 1012.7
20260502191010 12 20 1.6 6.4 0.00 1.80 1.80 88 1012.7
20260502190511 12 315 1.6 6.4 0.00 1.80 1.80 89 1012.6
20260502190033 12 101 0.0 4.8 0.00 1.80 1.80 91 1012.5
20260502185506 12 307 0.0 6.4 0.00 1.80 1.80 90 1012.7